Swansboro, NC

10:28 AM EDT on September 22, 2017 (GMT -0400)
Bogue McAlf

Weather History for KNJM - December, 2012

Change the Weather History Date:

Wednesday, December 12, 2012

  Actual Average (KNKT) Record (KNKT)
Temperature  
Mean Temperature 48 °F -  
Max Temperature 53 °F 57 °F 77 °F (2007)
Min Temperature 44 °F 38 °F 28 °F (2013)
Degree Days  
Heating Degree Days 16    
Moisture  
Dew Point 46 °F    
Average Humidity 89    
Maximum Humidity 94    
Minimum Humidity 83    
Precipitation  
Precipitation 0.35 in - - ()
Sea Level Pressure  
Sea Level Pressure 30.19 in    
Wind  
Wind Speed 10 mph (NNE)    
Max Wind Speed 16 mph    
Max Gust Speed 25 mph    
Visibility 9 miles    
Events Rain    
Averages and records for this station are not official NWS values.
T = Trace of Precipitation, MM = Missing Value Source: NWS Daily Summary

Daily Weather History Graph

Daily Weather History Graph

Search for Another Location

Airport or City:

Trip Planner

Search our weather history database for the weather conditions in past years. The results will help you decide how hot, cold, wet, or windy it might be!

Date:

Astronomy

Dec. 12, 2012 Rise Set
Actual Time 7:06 AM EST 4:57 PM EST
Civil Twilight 6:38 AM EST 5:25 PM EST
Nautical Twilight 6:06 AM EST 5:57 PM EST
Astronomical Twilight 5:36 AM EST 6:28 PM EST
Moon 6:09 AM EST (12/12) 4:32 PM EST (12/12)
Length of Visible Light 10h 47m
Length of Day
9h 51m
Waning Crescent, 1% of the Moon is Illuminated
Dec 12
Waning Crescent
Dec 13
New
Dec 20
First Quarter
Dec 28
Full
Jan 4
Last Quarter

Hourly Weather History & Observations

Time (EST) Temp. Windchill Dew Point Humidity Pressure Visibility Wind Dir Wind Speed Gust Speed Precip Events Conditions
12:13 AM 53.6 °F - 51.8 °F 94% 30.11 in 8.0 mi NE 6.9 mph - N/A   Overcast
12:57 AM 53.1 °F - 50.0 °F 89% 30.13 in 10.0 mi NE 5.8 mph - N/A   Overcast
1:57 AM 53.1 °F - 50.0 °F 89% 30.12 in 10.0 mi NNE 8.1 mph - N/A   Overcast
2:57 AM 52.0 °F - 50.0 °F 93% 30.13 in 10.0 mi NNE 11.5 mph 19.6 mph N/A   Overcast
3:57 AM 51.1 °F - 48.0 °F 89% 30.13 in 10.0 mi NNE 9.2 mph - 0.00 in Rain Light Rain
4:04 AM 51.8 °F - 48.2 °F 88% 30.13 in 10.0 mi NNE 9.2 mph - 0.00 in   Overcast
4:57 AM 51.1 °F - 46.0 °F 83% 30.16 in 10.0 mi NE 8.1 mph - 0.00 in   Overcast
5:57 AM 51.1 °F - 46.0 °F 83% 30.17 in 10.0 mi NNE 8.1 mph - N/A   Overcast
6:57 AM 50.0 °F - 46.0 °F 86% 30.18 in 10.0 mi NNE 11.5 mph 19.6 mph N/A   Overcast
7:20 AM 50.0 °F - 46.4 °F 87% 30.18 in 10.0 mi Variable 6.9 mph - N/A   Overcast
7:57 AM 50.0 °F - 46.9 °F 89% 30.20 in 10.0 mi NNE 11.5 mph - N/A   Overcast
8:57 AM 50.0 °F - 46.9 °F 89% 30.22 in 9.0 mi NE 9.2 mph - N/A   Overcast
9:57 AM 50.0 °F - 46.9 °F 89% 30.23 in 10.0 mi NNE 11.5 mph - N/A   Overcast
10:57 AM 50.0 °F - 46.0 °F 86% 30.24 in 10.0 mi NNE 11.5 mph 20.7 mph N/A   Overcast
11:57 AM 48.9 °F - 46.0 °F 90% 30.22 in 10.0 mi NNE 9.2 mph 19.6 mph 0.00 in Rain Light Rain
12:57 PM 48.9 °F - 46.0 °F 90% 30.20 in 10.0 mi North 9.2 mph 19.6 mph 0.01 in   Overcast
1:57 PM 48.9 °F - 46.0 °F 90% 30.19 in 10.0 mi NNE 15.0 mph 24.2 mph N/A   Overcast
2:57 PM 48.9 °F - 46.0 °F 90% 30.19 in 10.0 mi NNE 11.5 mph 19.6 mph 0.00 in   Overcast
3:57 PM 48.9 °F - 46.0 °F 90% 30.19 in 10.0 mi NNE 15.0 mph 23.0 mph 0.01 in   Overcast
4:57 PM 48.0 °F - 45.0 °F 89% 30.22 in 5.0 mi NNE 12.7 mph 24.2 mph 0.02 in Rain Rain
5:57 PM 46.9 °F - 44.1 °F 90% 30.23 in 9.0 mi North 12.7 mph 19.6 mph 0.05 in Rain Light Rain
6:57 PM 46.0 °F 40.2 °F 43.0 °F 89% 30.25 in 5.0 mi North 12.7 mph 19.6 mph 0.10 in Rain Rain
7:21 PM 44.6 °F 38.1 °F 42.8 °F 93% 30.23 in 8.0 mi NNE 13.8 mph 25.3 mph 0.02 in Rain Light Rain
7:57 PM 45.0 °F 37.9 °F 42.1 °F 90% 30.23 in 10.0 mi NNE 16.1 mph 23.0 mph 0.02 in   Overcast
8:57 PM 45.0 °F 37.9 °F 42.1 °F 90% 30.21 in 10.0 mi NE 16.1 mph 23.0 mph 0.03 in   Overcast
9:52 PM 46.4 °F 40.7 °F 42.8 °F 87% 30.19 in 10.0 mi North 12.7 mph 24.2 mph N/A   Overcast
9:57 PM 46.0 °F 40.2 °F 43.0 °F 89% 30.21 in 10.0 mi NNE 12.7 mph 24.2 mph N/A   Overcast
10:57 PM 46.0 °F 39.9 °F 44.1 °F 93% 30.18 in 6.0 mi North 13.8 mph 24.2 mph 0.03 in Rain Light Rain
11:57 PM 46.0 °F 41.0 °F 44.1 °F 93% 30.21 in 4.0 mi North 10.4 mph 20.7 mph 0.08 in Rain Heavy Rain